sat.trackr.live / text

‹ back to catalog

STARLINK-34254

NORAD 64136 · 2025-111P

PAYLOAD ACTIVE UNKNOWN

§ Identity

Operator
Country
US
Launch date
2025-05-24
Launch site
AFETR
Launch vehicle
Mass (kg)
RCS (m²)

Purposes: comms

External: N2YO · Heavens-Above · Gunter

§ Orbital elements

Epoch: 2026-09-20T21:52:47.161344Z

Period
94.27 min
Inclination
42.9999°
Eccentricity
0.0001703
Mean motion
15.27595689 rev/d
Perigee alt
481.8 km
Apogee alt
484.2 km
Semi-major
6,861.1 km
B*
6.0805e-4
RAAN
55.0518°
Arg perigee
274.0396°
Mean anomaly
86.0261°
Rev number
7,532

§ Raw data

STARLINK-342541 64136U 25111P   26263.91165696  .00016516  00000+0  60805-3 0  99922 64136  42.9999  55.0518 0001703 274.0396  86.0261 15.27595689 75327

JSON: /api/v1/satellites/64136 · /tle

For live sub-satellite position, see the globe view (requires WebGL).

§ Visibility from observer

Set your observer location to see the next 7 days of passes ≥ 10°. The values pass through the URL so the page stays shareable.

No JS? Fill the form by hand. The geolocation button needs JavaScript.